Precipitable_Water
0.79 0.80 0.78 0.77 0.75 0.75 0.75 0.74 0.75 0.74 0.73 0.73 0.71 0.71 0.73 0.76 0.80 0.81 0.80 0.80 0.80 0.78 0.76 0.76 0.78 0.80 0.83 0.87 0.89 0.90 0.89 0.88 0.88 0.88 0.86 0.86 0.84 0.83 0.82 0.81 0.81 0.79
0.78 0.79 0.80 0.80 0.78 0.79 0.78 0.79 0.78 0.78 0.77 0.77 0.77 0.77 0.78 0.79 0.81 0.82 0.82 0.81 0.81 0.79 0.80 0.81 0.83 0.83 0.84 0.86 0.87 0.86 0.85 0.86 0.84 0.89 0.86 0.85 0.85 0.86 0.84 0.84 0.83 0.84
0.77 0.77 0.77 0.76 0.76 0.77 0.79 0.80 0.81 0.80 0.80 0.81 0.82 0.82 0.81 0.83 0.82 0.84 0.85 0.85 0.84 0.84 0.86 0.86 0.87 0.87 0.88 0.89 0.89 0.88 0.86 0.85 0.84 0.88 0.88 0.86 0.87 0.86 0.86 0.88 0.87 0.85
0.76 0.76 0.76 0.76 0.76 0.77 0.79 0.79 0.80 0.81 0.82 0.81 0.81 0.82 0.83 0.84 0.85 0.86 0.88 0.89 0.89 0.88 0.89 0.90 0.89 0.90 0.90 0.90 0.91 0.91 0.90 0.89 0.89 0.90 0.88 0.89 0.90 0.90 0.88 0.89 0.88 0.87
0.73 0.74 0.76 0.76 0.76 0.77 0.78 0.77 0.77 0.78 0.79 0.81 0.83 0.84 0.84 0.84 0.85 0.86 0.88 0.90 0.91 0.90 0.92 0.92 0.94 0.94 0.94 0.93 0.93 0.91 0.91 0.90 0.91 0.91 0.88 0.88 0.91 0.91 0.90 0.90 0.86 0.81
0.72 0.73 0.73 0.74 0.74 0.74 0.74 0.74 0.75 0.76 0.77 0.77 0.79 0.82 0.83 0.85 0.85 0.85 0.87 0.87 0.90 0.92 0.92 0.94 0.95 0.96 0.97 0.96 0.95 0.92 0.91 0.89 0.90 0.91 0.89 0.88 0.89 0.92 0.90 0.88 0.82 0.78
0.66 0.68 0.69 0.72 0.72 0.73 0.72 0.72 0.73 0.74 0.74 0.76 0.78 0.77 0.80 0.81 0.81 0.83 0.84 0.85 0.86 0.89 0.90 0.92 0.93 0.94 0.96 0.95 0.93 0.91 0.92 0.91 0.92 0.92 0.89 0.88 0.87 0.86 0.87 0.82 0.78 0.77
0.63 0.64 0.65 0.67 0.68 0.70 0.69 0.70 0.71 0.71 0.72 0.73 0.73 0.74 0.78 0.77 0.78 0.80 0.81 0.82 0.83 0.85 0.88 0.90 0.92 0.92 0.93 0.93 0.91 0.91 0.91 0.93 0.90 0.88 0.86 0.84 0.83 0.80 0.77 0.78 0.78 0.76
0.64 0.62 0.62 0.61 0.62 0.64 0.66 0.67 0.69 0.69 0.71 0.70 0.70 0.71 0.74 0.75 0.77 0.80 0.81 0.83 0.84 0.86 0.89 0.90 0.91 0.91 0.93 0.92 0.89 0.87 0.84 0.84 0.84 0.83 0.81 0.79 0.76 0.73 0.73 0.76 0.77 0.76
0.62 0.62 0.61 0.59 0.59 0.60 0.62 0.65 0.68 0.69 0.70 0.69 0.69 0.71 0.71 0.73 0.76 0.77 0.80 0.81 0.83 0.86 0.87 0.86 0.85 0.85 0.85 0.85 0.83 0.82 0.81 0.80 0.82 0.81 0.79 0.75 0.73 0.72 0.74 0.76 0.75 0.76
0.59 0.60 0.60 0.59 0.57 0.57 0.59 0.62 0.64 0.67 0.69 0.69 0.70 0.70 0.71 0.72 0.73 0.76 0.77 0.78 0.79 0.80 0.80 0.81 0.82 0.83 0.83 0.84 0.85 0.85 0.84 0.83 0.81 0.79 0.77 0.76 0.76 0.76 0.77 0.78 0.78 0.77
0.54 0.57 0.59 0.59 0.58 0.58 0.57 0.59 0.61 0.63 0.65 0.68 0.70 0.69 0.70 0.73 0.74 0.76 0.77 0.76 0.77 0.78 0.80 0.81 0.83 0.84 0.83 0.83 0.84 0.86 0.85 0.83 0.81 0.80 0.79 0.79 0.79 0.80 0.80 0.81 0.80 0.81
0.47 0.50 0.54 0.57 0.59 0.59 0.59 0.60 0.59 0.60 0.61 0.63 0.68 0.69 0.69 0.71 0.73 0.75 0.77 0.78 0.79 0.81 0.80 0.80 0.81 0.83 0.83 0.84 0.84 0.84 0.83 0.81 0.80 0.80 0.80 0.80 0.80 0.80 0.82 0.84 0.85 0.86
0.44 0.47 0.50 0.53 0.57 0.59 0.59 0.59 0.60 0.59 0.59 0.60 0.64 0.66 0.68 0.70 0.72 0.74 0.78 0.80 0.80 0.81 0.81 0.82 0.82 0.82 0.82 0.83 0.83 0.82 0.81 0.79 0.79 0.79 0.78 0.79 0.79 0.81 0.84 0.85 0.86 0.87
0.45 0.46 0.47 0.51 0.55 0.56 0.57 0.57 0.58 0.58 0.58 0.56 0.57 0.62 0.67 0.70 0.72 0.74 0.75 0.76 0.79 0.80 0.81 0.83 0.82 0.81 0.81 0.81 0.80 0.79 0.80 0.79 0.79 0.79 0.79 0.78 0.79 0.81 0.84 0.85 0.85 0.86
0.47 0.47 0.47 0.47 0.47 0.49 0.51 0.53 0.54 0.54 0.55 0.55 0.51 0.55 0.61 0.66 0.69 0.72 0.73 0.74 0.75 0.78 0.79 0.80 0.80 0.81 0.81 0.81 0.82 0.81 0.81 0.81 0.82 0.82 0.81 0.80 0.79 0.79 0.81 0.83 0.84 0.85
0.45 0.46 0.47 0.46 0.44 0.44 0.47 0.50 0.50 0.50 0.49 0.52 0.50 0.49 0.54 0.60 0.66 0.67 0.69 0.73 0.75 0.75 0.75 0.76 0.77 0.79 0.80 0.80 0.80 0.81 0.81 0.81 0.80 0.80 0.81 0.81 0.80 0.78 0.77 0.78 0.81 0.83
0.42 0.44 0.44 0.44 0.43 0.43 0.43 0.46 0.48 0.47 0.46 0.48 0.49 0.47 0.48 0.53 0.58 0.62 0.66 0.69 0.71 0.73 0.74 0.74 0.75 0.77 0.78 0.79 0.79 0.79 0.80 0.80 0.80 0.79 0.78 0.78 0.78 0.78 0.78 0.78 0.78 0.79
0.43 0.43 0.43 0.43 0.43 0.43 0.43 0.44 0.45 0.47 0.46 0.46 0.48 0.49 0.49 0.48 0.49 0.56 0.60 0.65 0.68 0.68 0.69 0.72 0.73 0.74 0.76 0.77 0.78 0.78 0.79 0.80 0.79 0.78 0.76 0.75 0.76 0.76 0.76 0.76 0.76 0.76
0.45 0.45 0.44 0.43 0.44 0.44 0.45 0.45 0.44 0.43 0.44 0.46 0.47 0.50 0.50 0.48 0.48 0.48 0.53 0.60 0.64 0.66 0.67 0.69 0.70 0.71 0.73 0.74 0.75 0.76 0.77 0.78 0.78 0.77 0.76 0.76 0.76 0.76 0.75 0.75 0.75 0.74
0.47 0.45 0.44 0.44 0.46 0.46 0.46 0.45 0.44 0.44 0.44 0.45 0.46 0.47 0.48 0.48 0.48 0.47 0.47 0.51 0.59 0.65 0.66 0.66 0.68 0.71 0.73 0.74 0.74 0.74 0.75 0.77 0.77 0.76 0.76 0.75 0.76 0.76 0.75 0.75 0.75 0.75
0.47 0.47 0.47 0.47 0.46 0.46 0.45 0.45 0.45 0.45 0.44 0.45 0.45 0.46 0.47 0.49 0.51 0.51 0.48 0.48 0.51 0.57 0.61 0.62 0.65 0.69 0.72 0.72 0.73 0.74 0.74 0.74 0.74 0.73 0.72 0.73 0.73 0.73 0.74 0.75 0.76 0.76
0.49 0.48 0.47 0.47 0.47 0.47 0.46 0.45 0.45 0.45 0.47 0.48 0.46 0.45 0.44 0.44 0.47 0.51 0.52 0.50 0.49 0.52 0.54 0.56 0.59 0.65 0.69 0.71 0.71 0.72 0.73 0.71 0.70 0.70 0.70 0.69 0.69 0.71 0.74 0.75 0.76 0.77
0.50 0.51 0.50 0.49 0.48 0.47 0.46 0.47 0.48 0.48 0.48 0.50 0.48 0.46 0.44 0.44 0.45 0.47 0.51 0.53 0.51 0.50 0.54 0.54 0.54 0.59 0.63 0.67 0.68 0.69 0.70 0.69 0.68 0.67 0.67 0.68 0.70 0.72 0.74 0.74 0.76 0.79
0.49 0.49 0.48 0.47 0.47 0.47 0.48 0.47 0.48 0.49 0.50 0.50 0.50 0.50 0.48 0.48 0.48 0.46 0.45 0.49 0.52 0.52 0.54 0.56 0.55 0.57 0.61 0.63 0.66 0.68 0.69 0.71 0.70 0.69 0.68 0.69 0.70 0.70 0.72 0.73 0.75 0.79
0.48 0.48 0.48 0.47 0.46 0.47 0.49 0.49 0.50 0.49 0.50 0.50 0.51 0.51 0.49 0.50 0.50 0.49 0.46 0.45 0.49 0.52 0.53 0.55 0.58 0.59 0.60 0.62 0.65 0.67 0.69 0.71 0.73 0.70 0.68 0.69 0.70 0.69 0.68 0.69 0.73 0.76
Wind_Speed
48 48 48 48 48 48 47 47 47 47 47 47 47 47 47 47 47 47 47 47 47 47 47 47 46 46 46 46 45 45 45 45 45 44 43 43 43 43 43 43 42 42
47 47 47 48 48 48 47 47 47 47 48 48 48 48 48 48 48 48 48 48 48 48 48 48 48 48 47 47 47 46 46 46 46 45 45 45 45 45 45 44 44 44
45 46 46 47 47 48 47 47 48 48 48 48 48 48 48 48 48 48 48 48 49 49 49 49 49 48 48 48 47 47 47 47 47 46 46 46 46 46 45 45 45 45
44 45 45 46 46 47 47 47 47 47 47 48 48 48 47 47 48 48 48 48 49 49 49 49 49 49 49 48 48 48 48 48 48 47 47 47 46 46 46 45 45 45
43 44 44 45 46 46 46 47 47 47 47 48 48 48 48 48 48 48 48 48 49 49 49 49 49 49 49 48 48 49 49 48 48 47 47 47 46 46 46 46 45 45
42 43 43 44 44 45 46 46 46 47 47 48 48 48 48 48 49 49 49 49 49 49 49 48 48 48 48 48 48 49 48 48 48 47 47 47 47 46 46 45 45 44
42 42 42 43 43 44 44 45 45 46 46 47 47 48 48 48 49 49 49 49 48 48 48 48 48 48 48 48 48 48 48 48 48 47 47 47 46 46 45 44 44 44
42 42 42 42 43 43 44 44 45 45 45 46 46 46 47 47 48 48 48 47 47 48 47 47 47 47 47 47 48 48 48 48 47 47 47 46 46 45 44 44 44 44
42 43 43 43 43 43 44 44 44 44 45 45 46 46 46 46 46 46 46 46 46 46 46 46 46 46 46 46 46 47 47 47 46 46 46 45 45 44 44 44 44 44
44 44 44 44 44 44 44 44 44 44 44 45 45 46 45 45 45 45 45 45 46 46 45 45 45 45 45 45 45 45 45 45 45 45 45 44 44 44 44 44 44 44
45 45 45 46 46 45 45 45 45 44 44 45 45 46 46 45 45 45 45 45 45 46 46 46 45 45 45 45 45 45 45 44 44 44 44 44 45 45 45 45 45 45
47 46 46 47 47 47 46 46 46 46 46 46 46 46 46 46 46 45 45 46 46 46 46 46 46 46 46 46 46 46 45 45 45 45 45 45 46 46 46 46 46 46
48 48 47 48 48 47 47 47 47 47 47 47 46 47 47 47 47 47 47 47 47 47 47 47 47 48 48 48 47 47 47 47 46 46 47 47 47 47 47 47 47 47
50 50 50 49 49 49 49 49 49 49 48 48 48 48 48 48 48 48 49 48 48 49 48 48 48 48 48 48 48 48 48 48 48 48 49 49 49 49 49 48 48 47
52 52 52 51 51 51 51 51 51 50 50 50 49 49 49 49 49 49 50 50 50 50 50 50 49 49 49 49 49 49 50 50 50 50 50 50 50 50 49 49 48 47
53 53 53 52 53 52 52 53 53 52 52 52 51 51 50 50 50 51 51 51 52 52 51 51 51 51 51 51 51 51 51 51 51 51 51 51 51 50 49 49 48 47
52 52 52 52 53 53 53 53 53 54 54 54 53 52 52 51 51 52 52 52 52 53 53 53 53 53 53 53 53 52 52 52 52 52 52 51 51 50 50 49 48 47
52 52 52 52 53 53 53 53 53 53 54 54 54 53 52 52 53 53 53 53 53 54 54 54 54 54 54 53 53 53 53 52 52 52 52 51 51 50 49 48 48 47
53 53 53 53 53 53 53 53 53 54 54 54 54 54 53 53 53 53 53 53 53 54 54 54 54 54 54 54 53 53 53 52 52 52 51 51 50 49 49 48 48 47
52 53 53 54 54 53 53 53 54 54 54 54 54 54 54 54 53 53 54 54 54 54 54 54 54 54 53 53 53 53 52 52 52 51 51 50 50 49 49 49 48 47
52 53 53 54 54 54 54 54 55 55 55 54 54 54 54 55 54 54 54 54 54 54 54 54 54 53 53 53 53 52 52 52 51 51 51 50 50 50 50 49 49 48
53 54 54 54 54 54 55 55 55 55 55 54 55 55 55 55 55 55 55 54 54 54 54 55 55 54 53 53 53 53 53 52 52 52 51 51 51 50 50 50 49 49
54 54 55 55 56 56 56 56 56 56 55 55 55 56 56 56 55 55 56 56 55 55 55 55 55 54 54 54 54 54 53 53 52 52 52 51 51 51 50 50 49 49
54 54 55 56 56 57 57 58 58 57 57 57 57 57 57 57 56 56 56 56 56 56 55 55 55 54 54 54 54 54 54 53 52 52 52 51 51 50 50 50 49 49
55 55 55 56 56 57 57 58 58 58 58 58 58 58 58 58 58 57 57 57 57 57 56 55 55 54 53 54 54 55 55 54 53 52 52 52 51 50 50 49 49 48
56 57 57 56 56 56 56 56 57 57 58 58 59 59 59 60 59 59 59 59 58 58 57 56 55 55 54 54 54 55 56 55 54 53 53 52 51 50 50 49 49 48
Wind_Direction
262 262 262 262 263 263 263 263 263 263 263 263 263 263 263 263 263 263 263 263 263 264 264 265 265 265 266 266 267 267 267 268 268 269 269 270 271 272 273 274 274 275
262 263 263 263 263 263 263 263 263 263 264 264 264 264 264 264 264 264 263 263 263 264 264 265 265 265 266 266 266 266 267 267 268 269 269 270 271 272 273 273 274 274
263 263 263 263 264 264 264 264 264 264 264 265 265 265 265 265 264 264 264 264 264 264 264 264 265 265 265 265 266 266 267 267 268 269 270 270 271 272 272 273 273 273
263 263 263 264 264 264 265 265 265 265 265 265 265 265 265 265 265 264 264 264 264 264 264 264 264 265 265 265 265 266 266 267 268 269 270 271 271 272 272 273 273 273
263 264 264 265 265 265 265 265 265 266 266 266 266 265 265 265 265 265 264 264 264 264 264 264 264 264 264 264 265 265 266 267 268 268 269 270 271 271 272 272 272 272
264 265 265 266 266 266 266 266 266 266 266 266 266 266 266 265 265 265 265 265 265 264 264 264 264 264 264 264 265 265 266 267 268 268 269 270 270 271 272 272 271 271
265 266 266 266 267 267 267 267 267 267 267 267 267 267 266 266 266 266 265 265 265 265 264 264 264 264 264 264 264 265 266 266 267 267 268 269 270 270 270 271 271 271
266 266 267 267 267 268 268 268 268 268 268 268 268 267 267 267 266 266 266 266 265 265 264 264 264 264 264 264 264 265 265 266 267 267 268 268 269 269 269 270 270 270
266 267 267 268 268 269 269 269 270 270 269 268 268 268 268 267 267 266 265 265 265 265 264 264 264 264 264 264 264 265 265 266 266 267 267 267 268 268 269 269 269 270
267 267 268 268 269 269 270 270 270 270 270 269 269 269 268 268 267 266 265 264 264 264 264 264 264 264 264 264 264 265 265 266 266 266 267 267 267 268 268 268 269 269
266 267 267 268 268 269 269 269 269 269 270 270 269 269 268 268 268 267 266 265 264 263 263 264 264 264 264 265 265 265 266 266 266 267 267 267 267 268 268 268 268 268
266 266 267 267 268 268 268 269 269 269 269 269 269 269 269 268 267 267 267 266 265 264 264 264 264 264 264 265 265 266 266 266 267 267 267 267 267 267 268 268 268 268
265 266 267 267 268 268 268 268 269 269 269 269 269 269 269 268 267 267 266 266 266 265 265 265 265 265 265 265 265 266 266 266 266 266 266 266 266 267 267 268 268 267
265 266 267 268 268 268 268 268 269 269 269 269 269 268 268 268 267 267 266 266 266 266 266 266 265 265 265 265 266 266 266 266 266 266 266 266 266 266 267 267 267 267
266 267 267 268 268 268 268 268 268 269 269 269 268 268 268 268 268 267 266 266 266 266 266 266 266 266 266 266 266 266 266 266 266 265 265 265 266 266 266 266 266 266
267 267 267 268 269 269 268 268 268 268 268 268 268 267 267 267 267 267 266 266 265 265 265 265 266 266 266 265 265 265 265 266 265 265 265 265 265 265 265 265 265 266
267 268 268 268 269 269 268 268 267 267 267 267 267 267 267 267 267 267 266 266 265 265 265 265 265 266 266 266 265 265 265 265 265 265 265 265 265 265 265 265 265 265
268 268 268 269 269 269 268 268 268 268 268 267 267 267 267 267 267 266 266 266 265 265 264 264 265 265 265 265 265 265 264 264 264 264 264 264 264 264 264 265 265 265
268 268 268 268 268 268 268 269 269 268 269 268 267 267 268 268 267 267 267 266 266 265 264 264 264 264 264 264 264 264 264 264 264 264 264 263 263 263 263 264 264 264
269 269 269 269 268 269 269 269 269 269 269 269 268 268 267 267 267 267 267 267 266 266 265 264 264 264 263 263 263 263 263 263 263 263 263 263 263 263 263 263 263 263
269 269 269 269 269 269 269 269 269 269 269 269 268 267 267 267 267 267 267 267 267 266 266 265 264 264 263 263 263 263 262 262 262 262 262 262 262 262 262 263 263 262
269 269 269 269 269 269 269 269 269 269 269 268 268 267 267 267 267 267 267 267 267 267 266 266 265 264 263 263 263 262 262 261 261 261 261 261 261 261 262 262 262 262
269 269 269 269 268 268 268 268 268 268 268 268 267 266 266 266 266 266 266 267 267 266 266 266 266 264 263 262 262 262 261 261 261 260 260 259 260 260 261 261 261 262
271 271 270 270 269 268 268 268 267 267 267 266 266 265 265 265 265 265 265 265 266 266 266 266 266 265 263 262 262 261 261 261 260 259 259 259 259 260 260 261 261 261
271 271 271 271 270 270 269 269 268 267 267 266 265 265 265 264 264 264 264 264 264 265 265 265 266 265 264 263 262 261 261 261 260 259 258 258 258 259 260 260 260 260
270 270 270 270 270 270 270 270 269 269 268 267 266 265 265 264 264 264 264 264 264 264 264 264 264 265 264 263 262 261 260 260 259 259 258 258 258 258 259 259 260 260